This demonstration page uses our WeatherBlox Daily Observations layout. Learn more.

Left ArrowRight Arrow

Hourly Observations for June 12, 2021

Temp ( °F °C ) Dew Point ( °F °C ) Humidity (%) Winds ( mph kmh ) Pressure ( in mb ) Visibility ( mi km ) Precip ( " mm )
12:53 am 00:53 Cloudy 65 18.3 47 8.3 52 52 N 10 17 29.98 1015 10 16 0.00 0.00
1:53 am 01:53 Cloudy 66 18.9 46 7.8 49 49 N 5 7 29.98 1015 10 16 0.00 0.00
2:53 am 02:53 Cloudy 65 18.3 48 8.9 54 54 NNW 3 6 29.97 1015 10 16 0.00 0.00
3:53 am 03:53 Cloudy 65 18.3 47 8.3 52 52 Calm 29.96 1015 10 16 0.00 0.00
4:53 am 04:53 Mostly Cloudy 62 16.7 47 8.3 58 58 Calm 29.96 1014 10 16 0.00 0.00
5:53 am 05:53 Partly Cloudy 60 15.6 48 8.9 65 65 Calm 29.97 1015 10 16 0.00 0.00
6:53 am 06:53 Mostly Cloudy 63 17.2 50 10 63 63 Calm 29.97 1015 10 16 0.00 0.00
7:53 am 07:53 Cloudy 67 19.4 49 9.4 53 53 ENE 5 7 29.97 1015 10 16 0.00 0.00
8:53 am 08:53 Sunny 72 22.2 49 9.4 44 44 E 5 7 29.97 1015 10 16 0.00 0.00
9:53 am 09:53 Sunny 73 22.8 49 9.4 43 43 Calm 29.96 1014 10 16 0.00 0.00
10:53 am 10:53 Sunny 77 25 47 8.3 35 35 E 5 7 29.94 1014 10 16 0.00 0.00
11:53 am 11:53 Sunny 79 26.1 48 8.9 34 34 SSW 6 9 29.93 1014 10 16 0.00 0.00
12:53 pm 12:53 Sunny 81 27.2 49 9.4 33 33 SW 8 13 29.91 1013 10 16 0.00 0.00
1:53 pm 13:53 Sunny 84 28.9 49 9.4 30 30 S 8 13 29.89 1012 10 16 0.00 0.00
2:53 pm 14:53 Sunny 86 30 49 9.4 28 28 VRB 7 11 29.86 1011 10 16 0.00 0.00
3:53 pm 15:53 Sunny 87 30.6 48 8.9 26 26 VRB 3 6 29.84 1011 10 16 0.00 0.00
4:53 pm 16:53 Sunny 89 31.7 49 9.4 25 25 VRB 5 7 29.82 1010 10 16 0.00 0.00
5:53 pm 17:53 Sunny 89 31.7 49 9.4 25 25 SSE 7 11 29.80 1009 10 16 0.00 0.00
6:53 pm 18:53 Sunny 88 31.1 50 10 27 27 VRB 5 7 29.78 1008 10 16 0.00 0.00
7:53 pm 19:53 Sunny 87 30.6 52 11.1 30 30 SSE 8 13 29.77 1008 10 16 0.00 0.00
8:53 pm 20:53 Clear 83 28.3 52 11.1 34 34 S 6 9 29.77 1008 10 16 0.00 0.00
9:53 pm 21:53 Clear 83 28.3 53 11.7 36 36 SSW 7 11 29.78 1008 10 16 0.00 0.00
10:53 pm 22:53 Clear 79 26.1 55 12.8 44 44 SE 7 11 29.79 1009 10 16 0.00 0.00
11:53 pm 23:53 Clear 76 24.4 55 12.8 48 48 N 3 6 29.78 1009 10 16 0.00 0.00

Powered by AerisWeather